When you browse on this site, cookies collect data to enhance your experience and personalize the content and advertising you see.
Visit our Privacy Policy to learn more. By continuing to use the site, you agree to this use of cookies and data.
  • In Sweden
  • List of Countries
  • For 7 days
  • Water Temperature
  • Weather Map
  • Weather Widgets
  • user-avatar
    Login

    Hourly Weather Wien

    Today, 21 September, Saturday

    Time Temperature Precipitation Wind Pressure Humidity
    00:00 +10°C° 0 mm 0 mps 751 mmHg 60%
    01:00 +9°C° 0 mm 0 mps 752 mmHg 60%
    02:00 +9°C° 0 mm 0 mps 751 mmHg 61%
    03:00 +9°C° 0 mm 0 mps 751 mmHg 62%
    04:00 +9°C° 0 mm 1 mps 751 mmHg 63%
    05:00 +10°C° 0 mm 1 mps 751 mmHg 62%
    06:00 +10°C° 0 mm 1 mps 751 mmHg 60%
    07:00 +11°C° 0 mm 1 mps 751 mmHg 57%
    08:00 +13°C° 0 mm 2 mps 751 mmHg 51%
    09:00 +14°C° 0 mm 3 mps 750 mmHg 45%
    10:00 +17°C° 0 mm 4 mps 750 mmHg 39%
    11:00 +17°C° 0 mm 5 mps 750 mmHg 38%
    12:00 +19°C° 0 mm 5 mps 749 mmHg 36%
    13:00 +20°C° 0 mm 5 mps 749 mmHg 34%
    14:00 +20°C° 0 mm 5 mps 749 mmHg 34%
    15:00 +20°C° 0 mm 5 mps 748 mmHg 35%
    16:00 +20°C° 0 mm 5 mps 747 mmHg 36%
    17:00 +19°C° 0 mm 5 mps 747 mmHg 40%
    18:00 +16°C° 0 mm 5 mps 747 mmHg 43%
    19:00 +15°C° 0 mm 4 mps 747 mmHg 47%
    20:00 +14°C° 0 mm 4 mps 747 mmHg 49%
    21:00 +13°C° 0 mm 4 mps 747 mmHg 51%
    22:00 +13°C° 0 mm 4 mps 747 mmHg 52%
    23:00 +12°C° 0 mm 4 mps 747 mmHg 54%

    Tomorrow, 22 September, Sunday

    Time Temperature Precipitation Wind Pressure Humidity
    00:00 +12°C° 0 mm 4 mps 747 mmHg 55%
    01:00 +11°C° 0 mm 4 mps 747 mmHg 56%
    02:00 +11°C° 0 mm 4 mps 746 mmHg 57%
    03:00 +11°C° 0 mm 4 mps 746 mmHg 57%
    04:00 +10°C° 0 mm 4 mps 745 mmHg 58%
    05:00 +11°C° 0 mm 4 mps 745 mmHg 57%
    06:00 +11°C° 0 mm 4 mps 745 mmHg 55%
    07:00 +11°C° 0 mm 4 mps 745 mmHg 54%
    08:00 +13°C° 0 mm 5 mps 745 mmHg 48%
    09:00 +15°C° 0 mm 5 mps 745 mmHg 42%
    10:00 +17°C° 0 mm 6 mps 745 mmHg 37%
    11:00 +19°C° 0 mm 6 mps 744 mmHg 35%
    12:00 +20°C° 0 mm 6 mps 744 mmHg 33%
    13:00 +22°C° 0 mm 6 mps 743 mmHg 31%
    14:00 +21°C° 0 mm 6 mps 743 mmHg 33%
    15:00 +21°C° 0 mm 5 mps 742 mmHg 35%
    16:00 +21°C° 0 mm 5 mps 742 mmHg 37%
    17:00 +20°C° 0 mm 4 mps 742 mmHg 43%
    18:00 +19°C° 0 mm 3 mps 741 mmHg 48%
    19:00 +17°C° 0 mm 3 mps 741 mmHg 53%
    20:00 +17°C° 0 mm 2 mps 741 mmHg 55%
    21:00 +16°C° 0 mm 2 mps 741 mmHg 58%
    22:00 +16°C° 0 mm 2 mps 741 mmHg 60%
    23:00 +15°C° 0 mm 2 mps 741 mmHg 62%

    Day after tomorrow, 23 September, Monday

    Time Temperature Precipitation Wind Pressure Humidity
    00:00 +15°C° 0 mm 1 mps 741 mmHg 63%
    01:00 +14°C° 0 mm 1 mps 741 mmHg 65%
    02:00 +14°C° 0 mm 1 mps 740 mmHg 66%
    03:00 +13°C° 0 mm 1 mps 740 mmHg 67%
    04:00 +13°C° 0 mm 1 mps 740 mmHg 68%
    05:00 +13°C° 0 mm 1 mps 740 mmHg 67%
    06:00 +14°C° 0 mm 1 mps 740 mmHg 67%
    07:00 +13°C° 0 mm 0 mps 740 mmHg 66%
    08:00 +16°C° 0 mm 1 mps 740 mmHg 62%
    09:00 +18°C° 0 mm 1 mps 741 mmHg 57%
    10:00 +20°C° 0 mm 1 mps 741 mmHg 53%
    11:00 +20°C° 0 mm 2 mps 741 mmHg 51%
    12:00 +21°C° 0 mm 2 mps 741 mmHg 49%
    13:00 +23°C° 0 mm 2 mps 740 mmHg 47%
    14:00 +22°C° 0 mm 3 mps 740 mmHg 49%
    15:00 +21°C° 0 mm 3 mps 740 mmHg 51%
    16:00 +21°C° 0 mm 3 mps 740 mmHg 53%
    17:00 +20°C° 0 mm 4 mps 741 mmHg 60%
    18:00 +17°C° 0 mm 5 mps 741 mmHg 66%
    19:00 +16°C° 0 mm 6 mps 741 mmHg 73%
    20:00 +15°C° 0 mm 5 mps 742 mmHg 75%
    21:00 +15°C° 0 mm 5 mps 742 mmHg 77%
    22:00 +15°C° 0 mm 5 mps 742 mmHg 78%
    23:00 +14°C° 0 mm 5 mps 742 mmHg 79%

    24 September, Tuesday

    Time Temperature Precipitation Wind Pressure Humidity
    00:00 +14°C° 0 mm 5 mps 742 mmHg 79%
    01:00 +14°C° 0 mm 5 mps 742 mmHg 80%
    02:00 +14°C° 0 mm 4 mps 742 mmHg 80%
    03:00 +14°C° 0 mm 4 mps 742 mmHg 80%
    04:00 +14°C° 0 mm 4 mps 742 mmHg 81%
    05:00 +14°C° 0 mm 4 mps 741 mmHg 80%
    06:00 +14°C° 0 mm 4 mps 741 mmHg 80%
    07:00 +14°C° 0 mm 3 mps 741 mmHg 80%
    08:00 +16°C° 0 mm 3 mps 741 mmHg 75%
    09:00 +17°C° 0 mm 3 mps 741 mmHg 71%
    10:00 +18°C° 0 mm 3 mps 741 mmHg 66%
    11:00 +19°C° 0 mm 3 mps 741 mmHg 63%
    12:00 +20°C° 0 mm 4 mps 741 mmHg 60%
    13:00 +21°C° 0 mm 4 mps 740 mmHg 56%
    14:00 +21°C° 0 mm 3 mps 740 mmHg 55%
    15:00 +21°C° 0 mm 3 mps 740 mmHg 55%
    16:00 +21°C° 0 mm 2 mps 740 mmHg 54%
    17:00 +20°C° 0 mm 2 mps 740 mmHg 59%
    18:00 +19°C° 0 mm 1 mps 740 mmHg 65%
    19:00 +18°C° 0 mm 1 mps 740 mmHg 70%
    20:00 +16°C° 0 mm 1 mps 740 mmHg 72%
    21:00 +16°C° 0 mm 1 mps 740 mmHg 74%
    22:00 +15°C° 0 mm 1 mps 740 mmHg 76%
    23:00 +15°C° 0 mm 1 mps 740 mmHg 78%

    25 September, Wednesday

    Time Temperature Precipitation Wind Pressure Humidity
    00:00 +14°C° 0 mm 1 mps 740 mmHg 79%
    01:00 +14°C° 0 mm 1 mps 740 mmHg 80%
    02:00 +13°C° 0 mm 1 mps 739 mmHg 80%
    03:00 +13°C° 0 mm 1 mps 739 mmHg 80%
    04:00 +13°C° 0 mm 1 mps 739 mmHg 80%
    05:00 +14°C° 0 mm 1 mps 739 mmHg 78%
    06:00 +14°C° 0 mm 1 mps 739 mmHg 75%
    07:00 +15°C° 0 mm 1 mps 739 mmHg 73%
    08:00 +15°C° 0.1 mm 1 mps 739 mmHg 73%
    09:00 +16°C° 0.1 mm 2 mps 739 mmHg 74%
    10:00 +16°C° 0.1 mm 2 mps 739 mmHg 75%
    11:00 +16°C° 0.1 mm 3 mps 739 mmHg 75%
    12:00 +17°C° 0.1 mm 4 mps 739 mmHg 75%
    13:00 +17°C° 0.1 mm 4 mps 739 mmHg 75%
    14:00 +15°C° 0.2 mm 4 mps 739 mmHg 76%
    15:00 +15°C° 0.2 mm 4 mps 739 mmHg 77%
    16:00 +15°C° 0.2 mm 4 mps 739 mmHg 79%
    17:00 +15°C° 0 mm 4 mps 740 mmHg 77%
    18:00 +14°C° 0 mm 4 mps 740 mmHg 76%
    19:00 +14°C° 0 mm 3 mps 740 mmHg 74%
    20:00 +14°C° 0 mm 3 mps 740 mmHg 74%
    21:00 +14°C° 0 mm 3 mps 740 mmHg 75%
    22:00 +13°C° 0 mm 3 mps 741 mmHg 75%
    23:00 +14°C° 0 mm 2 mps 741 mmHg 77%

    26 September, Thursday

    Time Temperature Precipitation Wind Pressure Humidity
    00:00 +13°C° 0 mm 2 mps 740 mmHg 80%
    01:00 +12°C° 0 mm 1 mps 740 mmHg 82%
    02:00 +12°C° 0 mm 1 mps 741 mmHg 82%
    03:00 +12°C° 0 mm 1 mps 741 mmHg 81%
    04:00 +12°C° 0 mm 1 mps 741 mmHg 81%
    05:00 +12°C° 0 mm 1 mps 741 mmHg 78%
    06:00 +13°C° 0 mm 1 mps 741 mmHg 76%
    07:00 +13°C° 0 mm 1 mps 742 mmHg 73%
    08:00 +15°C° 0 mm 1 mps 742 mmHg 66%
    09:00 +18°C° 0 mm 1 mps 742 mmHg 58%
    10:00 +20°C° 0 mm 1 mps 742 mmHg 50%
    11:00 +21°C° 0 mm 1 mps 742 mmHg 46%
    12:00 +23°C° 0 mm 1 mps 742 mmHg 41%
    13:00 +24°C° 0 mm 2 mps 741 mmHg 37%
    14:00 +24°C° 0 mm 2 mps 741 mmHg 37%
    15:00 +24°C° 0 mm 2 mps 741 mmHg 37%
    16:00 +24°C° 0 mm 2 mps 741 mmHg 37%
    17:00 +21°C° 0 mm 2 mps 741 mmHg 44%
    18:00 +20°C° 0 mm 2 mps 741 mmHg 50%
    19:00 +18°C° 0 mm 2 mps 741 mmHg 56%
    20:00 +17°C° 0 mm 2 mps 741 mmHg 61%
    21:00 +17°C° 0 mm 2 mps 741 mmHg 66%
    22:00 +16°C° 0 mm 2 mps 741 mmHg 70%
    23:00 +16°C° 0 mm 2 mps 741 mmHg 73%
    Show more